Regional Weather Roundup
Issued by NWS Newport/Morehead, NC

Current Version | Previous Version | Text Only | Print | Product List | Glossary On
Versions: 1 2 3 4 5 6 7 8 9 10 11 12 13 14 15 16 17 18 19 20 21 22 23 24 25 26 27 28 29 30 31 32 33 34 35 36 37 38 39 40
000
ASUS42 KMHX 161525
RWRMHX
WEATHER ROUNDUP FOR EASTERN NORTH CAROLINA
NATIONAL WEATHER SERVICE NEWPORT/MOREHEAD CITY NC
1100 AM EDT WED AUG 16 2017

NOTE: "FAIR" INDICATES FEW OR NO CLOUDS BELOW 12,000 FEET
WITH NO SIGNIFICANT WEATHER AND/OR OBSTRUCTIONS TO VISIBILITY

NCZ015>017-031-032-045>047-102-103-161600-
NORTH COAST

CITY           SKY/WX    TMP DP  RH WIND       PRES   REMARKS
EDENTON        PTSUNNY   84  76  75 E6        30.01S
ELIZABETH CITY PTSUNNY   82  76  81 N8        30.00S
KITTY HAWK     PTSUNNY   80  74  83 CALM      29.99S
MANTEO         PTSUNNY   81  75  82 NE7       30.00S

$$

NCZ045>047-081-094-103-104-161600-
CENTRAL COAST

CITY           SKY/WX    TMP DP  RH WIND       PRES   REMARKS
FRISCO         PTSUNNY   84  78  82 VRB7      29.99R

$$

NCZ095-097-098-100-101-161600-
SOUTHERN COAST

CITY           SKY/WX    TMP DP  RH WIND       PRES   REMARKS
BEAUFORT       PTSUNNY   87  80  79 N9        29.99S HX 103
CEDAR ISLAND   NOT AVBL
JACKSONVILLE   PTSUNNY   82  77  84 N6        30.00R
PINEY ISLAND   CLOUDY   N/A N/A N/A N8        29.99S
WILMINGTON     MOSUNNY   87  76  69 N6        30.00S


$$

NCZ011>013-027>030-043-044-078>080-089-090>093-098-161600-
COASTAL PLAIN

CITY           SKY/WX    TMP DP  RH WIND       PRES   REMARKS
AHOSKIE          N/A     81  74  79 N7        30.01S
CLINTON        SUNNY     86  76  71 N3        30.03R
ELIZABETHTOWN  NOT AVBL
GOLDSBORO      PTSUNNY   81  81 100 N7        30.02R
GREENVILLE     PTSUNNY   82  75  78 N6        30.03S
HAVELOCK       CLOUDY    82  76  81 NE5       30.02R
KENANSVILLE    PTSUNNY   82  75  78 N5        30.03R
KINSTON        CLOUDY    79  79 100 N5        30.03R
NEW BERN       CLOUDY    80  77  90 N6        30.02R
RICHLANDS      PTSUNNY   80  76  87 N5        30.02R
ROCKY MOUNT    CLOUDY    78  74  87 NE8       30.03S
WASHINGTON     PTSUNNY   81  75  81 N5        30.02R
WHITEVILLE     MOSUNNY   85  77  75 CALM      30.01S

$$

AMZ130-135-150-152-154-156-158-170-250-252-270-ANZ085-086-088-633-658-670-161600-
MARINE OBSERVATIONS

STATION/POSITION TIME  TEMP    WIND        PRES    WAVE   SWELL
                       AIR SEA DIR/SP/G            HT/PER HT/PER
                 (UTC) (F)     (DEG/KT/KT) (MB)    (FT/S) (FT/S)
CHESAPEAKE LIGHT NOT AVBL
64 E VA BEACH    1450   77 78   10/  6/  8 1016.2    4/11   3/11
DUCK             1500   77 78  360/  9/ 10 1015.5
2 E DUCK         1500      78                N/A     3/ 8   2/11
OREGON INLET     1500   80 82  360/ 11/ 14 1015.4
13E OREGON INLT  1448      80                N/A     3/ 8   3/ 8
HATTERAS CG      1500   81 83   20/  9/ 10 1015.4
DIAMOND BUOY     1450   81 83   30/  8/ 10 1015.2    3/ 8   2/ 8
CAPE LOOKOUT     1500   82      60/  6/  7 1015.2
BEAUFORT LAB     1500   83 82  350/  8/ 10 1015.1
30 SE NEW RVR IN 1508   80 83   20/  8/ 12 1015.9
30 SE NEW RVR IN 1413      83                N/A     3/ 5
27 SE WRIGHTSVLE 1508   81 83   40/  8/ 14 1015.8
5 SE WRIGHTSVLE  1508   81 83   60/  8/ 10 1015.9
225 S CAPE HAT   1450   84 84  250/ 14/ 17 1017.0    4/ 6   2/10
41 SE CHARLESTON 1510   83 83  280/  8/ 10 1016.8

$$




USA.gov is the U.S. government's official web portal to all federal, state and local government web resources and services.